Weather in Grachevka

Russia / Orenburg Oblast     52°14′30″N   51°42′57″E
temp.,
°C
wind,
m/s
gust,
m/s
humid.,
%
clouds,
%
prec.,
mm/h
press.,
hPa
HPBL,
m
25 february, thu
thu2523:00−25nnw614920 0.0 1034275
02:00−28nnw46950 0.0 103489
05:00−28nw45940 0.0 103564
08:00−28nw34933 0.0 103531
11:00−25w12891 0.0 103553
14:00−21ssw3486100 0.0 1034215
17:00−21s589099 0.0 1033253
20:00−20s61193100 0.0 1031342
26 february, fri
fri2623:00−19s71297100 0.5 1028463
02:00−17s71395100 0.9 1025548
05:00−15s71395100 1.8 1023621
08:00−13s71294100 0.8 1020578
11:00−12s71193100 1.3 1020588
14:00−11s71193100 0.3 1018587
17:00−10s61092100 0.5 1017512
20:00−10s61294100 0.1 1015385
27 february, sat
sat2723:00−8s71394100 0.8 1012379
02:00−6s91595100 1.3 1007423
05:00−2ssw91597100 5.7 1003479
08:00+1w61299100 3.3 1001437
11:00+1wsw5119699 3.3 1001518
14:00+1wsw611100100 0.1 1001551
17:000wsw61099100 0.1 1002572
20:000wsw51098100 0.3 1001522
28 february, sun
sun2823:000wsw51097100 0.8 1002509
02:00−2sw51096100 0.1 1000383
05:00−2sw5109697 0.3 1000383
08:00−2sw51096100 0.3 1001384
11:00−5nw4696100 0.9 1002237
14:00−8nw6893100 0.4 1005407
17:00−11nw5991100 0.5 1007498
20:00−14nw4995100 0.0 1010276
1 march, mon
mon123:00−17nw489691 0.1 1013186
02:00−19nw479765 0.0 1014136
05:00−19nw369869 0.0 1016102
08:00−18nw479677 0.1 1017178
11:00−16nw469475 0.1 1018253
14:00−15nw469396 0.0 1020320
17:00−14nw479398 0.1 1021400
20:00−16nw499696 0.1 1022212